SBD2100 KDEN-BGGH

Flight info

Callsign SBD2100
Flight time N/A
Altitude 33000
Route YELLO5 HANKI J148 ONL J114 GEP J21 DLH DCT MECNU DCT 52N084W 55N078W 59N071W/M079F330 62N062W
Aircraft B39M/M-SDE2E3FGHIRWXY/LB1

Departure

Time N/A
Airport Denver International Airport (KDEN)

Arrival

Time 2026-04-30 14:59
Airport Nuuk International Airport (BGGH)
Time Latitude Longitude Altitude Speed Heading
2026-04-30 14:45 63.81436 -53.36004 16104 ft 418 kts 68°
2026-04-30 14:46 63.82443 -53.30005 15383 ft 409 kts 68°
2026-04-30 14:46 63.83438 -53.24068 14679 ft 400 kts 69°
2026-04-30 14:46 63.84404 -53.18282 13997 ft 392 kts 69°
2026-04-30 14:46 63.85039 -53.14468 13541 ft 386 kts 69°
2026-04-30 14:47 63.86282 -53.06991 12637 ft 376 kts 69°
2026-04-30 14:47 63.87178 -53.01579 11990 ft 368 kts 69°
2026-04-30 14:47 63.88057 -52.96254 11345 ft 360 kts 69°
2026-04-30 14:47 63.88917 -52.91031 10906 ft 347 kts 69°
2026-04-30 14:48 63.89743 -52.85998 10678 ft 329 kts 69°
2026-04-30 14:48 63.90517 -52.81266 10551 ft 311 kts 69°
2026-04-30 14:48 63.91239 -52.76840 10421 ft 294 kts 69°
2026-04-30 14:48 63.91930 -52.72599 10285 ft 280 kts 69°
2026-04-30 14:49 63.92600 -52.68485 10155 ft 280 kts 69°
2026-04-30 14:49 63.93288 -52.64248 9919 ft 290 kts 69°
2026-04-30 14:49 63.93980 -52.59974 9514 ft 288 kts 69°
2026-04-30 14:49 63.94657 -52.55779 9155 ft 281 kts 69°
2026-04-30 14:50 63.95966 -52.47636 8447 ft 268 kts 69°
2026-04-30 14:50 63.96590 -52.43734 8111 ft 261 kts 69°
2026-04-30 14:51 63.97801 -52.36150 7478 ft 252 kts 69°
2026-04-30 14:51 63.98388 -52.32468 7162 ft 250 kts 70°
2026-04-30 14:51 63.99563 -52.25072 6523 ft 245 kts 70°
2026-04-30 14:52 64.00133 -52.21469 6229 ft 243 kts 71°
2026-04-30 14:52 64.01260 -52.14338 5693 ft 235 kts 71°
2026-04-30 14:52 64.01801 -52.10905 5624 ft 224 kts 71°
2026-04-30 14:53 64.02755 -52.04250 5583 ft 226 kts 83°
2026-04-30 14:53 64.02647 -52.00702 5346 ft 226 kts 107°
2026-04-30 14:54 64.01673 -51.94056 4864 ft 220 kts 108°
2026-04-30 14:54 64.00813 -51.87507 4443 ft 209 kts 99°
2026-04-30 14:55 64.01576 -51.81658 4089 ft 196 kts 42°
2026-04-30 14:55 64.02715 -51.80058 3982 ft 196 kts 25°
2026-04-30 14:55 64.05383 -51.77891 3255 ft 204 kts 19°
2026-04-30 14:56 64.08007 -51.75988 2625 ft 187 kts 19°
2026-04-30 14:56 64.10310 -51.74321 2082 ft 160 kts 19°
2026-04-30 14:57 64.11320 -51.73592 1826 ft 145 kts 19°
2026-04-30 14:57 64.13232 -51.72258 1436 ft 145 kts 16°
2026-04-30 14:58 64.15143 -51.70881 971 ft 146 kts 20°
2026-04-30 14:58 64.16106 -51.70177 789 ft 146 kts 17°
2026-04-30 14:58 64.17978 -51.68775 310 ft 137 kts 19°
2026-04-30 14:59 64.19255 -51.67808 259 ft 41 kts 17°
2026-04-30 15:00 64.19265 -51.67784 259 ft 16 kts 198°
2026-04-30 15:00 64.18961 -51.68019 258 ft 31 kts 197°
2026-04-30 15:01 64.18655 -51.68164 258 ft 11 kts 124°
2026-04-30 15:01 64.18636 -51.68053 258 ft 10 kts 107°
2026-04-30 15:01 64.18574 -51.67925 258 ft 4 kts 201°
2026-04-30 15:02 64.18536 -51.67959 258 ft 8 kts 199°
2026-04-30 15:02 64.18476 -51.68006 258 ft 8 kts 199°
2026-04-30 15:03 64.18403 -51.67974 258 ft 2 kts 107°
2026-04-30 15:03 64.18394 -51.67923 258 ft 0 kts 109°
2026-04-30 15:04 64.18394 -51.67921 258 ft 0 kts 109°